Location: Tel Aviv
(32.0670°N, 34.7670°E)
Time: 03:02:49
(UTC+02:00)

Altair - All Passes

Search period start: 23 January 2022 00:00
Search period end: 02 February 2022 00:00
Orbit: 1501 x 1683 km, 47.2° (Epoch: 22 January)

Date Brightness Start Highest point End Pass type
(mag) Time Alt. Az. Time Alt. Az. Time Alt. Az.
23 Jan - 00:33:09 10° SW 00:42:59 78° SE 00:53:09 10° NE visible
23 Jan - 02:39:06 10° W 02:48:35 45° NNW 02:58:13 10° NE visible
23 Jan - 04:46:54 10° WNW 04:55:53 34° N 05:04:49 10° ENE visible
23 Jan - 06:52:53 10° NW 07:02:50 55° NNE 07:12:31 10° ESE daylight
23 Jan - 08:58:02 10° WNW 09:07:50 57° SW 09:17:17 10° SSE daylight
23 Jan - 11:08:48 10° WSW 11:11:07 11° WSW 11:13:25 10° SW daylight
23 Jan - 22:08:27 10° SSE 22:14:14 17° ESE 22:20:07 10° E night (unlit)
24 Jan - 00:08:03 10° SW 00:17:48 73° SE 00:27:53 10° NE visible
24 Jan - 02:13:42 10° W 02:23:14 47° NNW 02:32:57 10° NE visible
24 Jan - 04:21:31 10° WNW 04:30:27 33° N 04:39:23 10° ENE visible
24 Jan - 06:27:38 10° NW 06:37:30 52° NNE 06:47:10 10° E daylight
24 Jan - 08:32:44 10° WNW 08:42:39 62° SW 08:52:16 10° SSE daylight
24 Jan - 10:41:59 10° W 10:46:03 13° WSW 10:50:05 10° SW daylight
24 Jan - 21:44:14 10° SSE 21:49:10 15° ESE 21:54:08 10° E night (unlit)
24 Jan - 23:42:58 10° SW 23:52:37 67° SE 00:02:36 10° NE night (unlit)
25 Jan - 01:48:20 10° W 01:57:54 49° NNW 02:07:42 10° NE visible
25 Jan - 03:56:07 10° WNW 04:05:02 33° N 04:13:58 10° ENE visible
25 Jan - 06:02:23 10° NW 06:12:11 49° NNE 06:21:47 10° E visible
25 Jan - 08:07:27 10° NW 08:17:30 68° SW 08:27:13 10° SE daylight
25 Jan - 10:15:48 10° W 10:20:59 15° WSW 10:26:06 10° SSW daylight
25 Jan - 21:20:21 10° SE 21:24:06 13° ESE 21:27:53 10° E night (unlit)
25 Jan - 23:17:55 10° SSW 23:27:27 61° SE 23:37:19 10° ENE night (unlit)
26 Jan - 01:22:57 10° WSW 01:32:34 52° NNW 01:42:26 10° NE visible
26 Jan - 03:30:42 10° WNW 03:39:37 33° N 03:48:34 10° ENE visible
26 Jan - 05:37:08 10° NW 05:46:51 47° NNE 05:56:25 10° E visible
26 Jan - 07:42:11 10° NW 07:52:18 73° SW 08:02:08 10° SE daylight
26 Jan - 09:49:52 10° W 09:55:54 18° WSW 10:01:52 10° SSW daylight
26 Jan - 20:57:16 10° SE 20:59:02 11° ESE 21:00:48 10° ESE night (unlit)
26 Jan - 22:52:55 10° SSW 23:02:17 56° SE 23:12:01 10° ENE night (unlit)
27 Jan - 00:57:36 10° WSW 01:07:15 55° NNW 01:17:11 10° NE visible
27 Jan - 03:05:18 10° WNW 03:14:12 34° N 03:23:10 10° ENE visible
27 Jan - 05:11:52 10° NW 05:21:29 44° NNE 05:31:00 10° E visible
27 Jan - 07:16:55 10° NW 07:27:06 79° SW 07:37:01 10° SE daylight
27 Jan - 09:24:05 10° W 09:30:49 21° WSW 09:37:27 10° SSW daylight
27 Jan - 22:27:56 10° SSW 22:37:09 51° SE 22:46:41 10° ENE night (unlit)
28 Jan - 00:32:17 10° WSW 00:41:57 58° NNW 00:51:57 10° NE visible
28 Jan - 02:39:52 10° WNW 02:48:46 34° N 02:57:47 10° ENE visible
28 Jan - 04:46:36 10° NW 04:56:08 42° NNE 05:05:34 10° E visible
28 Jan - 06:51:41 10° NW 07:01:54 85° SW 07:11:52 10° SE daylight
28 Jan - 08:58:25 10° WNW 09:05:44 23° SW 09:12:56 10° S daylight
28 Jan - 22:02:59 10° SSW 22:12:01 46° SE 22:21:22 10° ENE night (unlit)
29 Jan - 00:06:58 10° WSW 00:16:40 62° NNW 00:26:42 10° NE visible
29 Jan - 02:14:27 10° WNW 02:23:21 35° N 02:32:24 10° NE visible
29 Jan - 04:21:19 10° NW 04:30:46 41° NNE 04:40:08 10° E visible
29 Jan - 06:26:26 10° NW 06:36:41 89° NE 06:46:42 10° SE daylight
29 Jan - 08:32:50 10° WNW 08:40:38 26° SW 08:48:19 10° S daylight
29 Jan - 21:38:05 10° SSW 21:46:53 42° SE 21:56:00 10° ENE night (unlit)
29 Jan - 23:41:41 10° WSW 23:51:24 66° NNW 00:01:27 10° NE night (unlit)
30 Jan - 01:49:01 10° WNW 01:57:57 35° N 02:07:02 10° NE visible
30 Jan - 03:56:02 10° NW 04:05:23 39° NNE 04:14:41 10° E visible
30 Jan - 06:01:12 10° NW 06:11:27 84° NE 06:21:29 10° SE visible
30 Jan - 08:07:19 10° WNW 08:15:32 29° SW 08:23:37 10° S daylight
30 Jan - 21:13:14 10° SSW 21:21:47 38° SE 21:30:37 10° ENE visible
30 Jan - 23:16:25 10° WSW 23:26:08 70° NW 23:36:14 10° NE night (unlit)
31 Jan - 01:23:35 10° WNW 01:32:33 36° N 01:41:42 10° NE visible
31 Jan - 03:30:44 10° NW 03:39:59 38° NNE 03:49:14 10° E visible
31 Jan - 05:35:58 10° NW 05:46:12 79° NE 05:56:15 10° ESE visible
31 Jan - 07:41:50 10° WNW 07:50:25 33° SW 07:58:52 10° S daylight
31 Jan - 20:48:25 10° S 20:56:40 34° SE 21:05:11 10° ENE visible
31 Jan - 22:51:12 10° WSW 23:00:53 75° NW 23:10:59 10° NE night (unlit)
01 Feb - 00:58:10 10° WNW 01:07:09 37° NNW 01:16:21 10° NE visible
01 Feb - 03:05:26 10° NW 03:14:36 37° NNE 03:23:47 10° ENE visible
01 Feb - 05:10:44 10° NW 05:20:57 74° NE 05:31:01 10° ESE visible
01 Feb - 07:16:24 10° WNW 07:25:18 36° SW 07:34:03 10° S daylight
01 Feb - 20:23:39 10° S 20:31:35 31° SE 20:39:45 10° ENE visible
01 Feb - 22:25:59 10° SW 22:35:39 80° NW 22:45:44 10° NE night (unlit)
